Terminal Aerodrome Forecast
Issued by NWS

Home | Current Version | Previous Version | Text Only | Print | Product List | Glossary Off
Versions: 1 2 3 4 5 6 7 8 9 10 11 12 13 14 15 16 17 18 19 20 21 22 23 24 25

000
FTUS43 KABR 031721
TAFMBG
TAF
KMBG 031721Z 0318/0418 15012KT P6SM SKC
     FM040200 12009KT P6SM OVC150
     FM041500 14006KT P6SM VCTS OVC015CB=

USA.gov is the U.S. government's official web portal to all federal, state and local government web resources and services.